EN

Hourly Weather Bolshie Klyuchi

Today, 21 October, Wednesday

Time Temperature Precipitation Wind Pressure Humidity
00:00 +7°C° 0 mm 2 mps 756 mmHg 68%
01:00 +7°C° 0 mm 2 mps 755 mmHg 70%
02:00 +7°C° 0 mm 1 mps 755 mmHg 72%
03:00 +6°C° 0 mm 2 mps 755 mmHg 73%
04:00 +6°C° 0 mm 2 mps 755 mmHg 73%
05:00 +6°C° 0 mm 2 mps 755 mmHg 73%
06:00 +6°C° 0 mm 2 mps 754 mmHg 73%
07:00 +7°C° 0 mm 2 mps 754 mmHg 69%
08:00 +9°C° 0 mm 2 mps 754 mmHg 64%
09:00 +11°C° 0 mm 1 mps 754 mmHg 59%
10:00 +13°C° 0 mm 2 mps 753 mmHg 56%
11:00 +14°C° 0 mm 3 mps 753 mmHg 53%
12:00 +17°C° 0 mm 4 mps 752 mmHg 50%
13:00 +17°C° 0 mm 4 mps 751 mmHg 54%
14:00 +17°C° 0 mm 3 mps 750 mmHg 57%
15:00 +17°C° 0 mm 2 mps 750 mmHg 61%
16:00 +16°C° 0 mm 2 mps 750 mmHg 65%
17:00 +15°C° 0 mm 2 mps 750 mmHg 68%
18:00 +14°C° 0 mm 2 mps 750 mmHg 72%
19:00 +13°C° 0 mm 2 mps 749 mmHg 75%
20:00 +13°C° 0 mm 2 mps 749 mmHg 78%
21:00 +12°C° 0 mm 2 mps 748 mmHg 80%
22:00 +12°C° 0 mm 2 mps 748 mmHg 82%
23:00 +12°C° 0 mm 2 mps 748 mmHg 83%

Tomorrow, 22 October, Thursday

Time Temperature Precipitation Wind Pressure Humidity
00:00 +11°C° 0 mm 3 mps 747 mmHg 85%
01:00 +12°C° 0.4 mm 2 mps 747 mmHg 87%
02:00 +12°C° 0.4 mm 2 mps 747 mmHg 89%
03:00 +11°C° 0.4 mm 1 mps 746 mmHg 91%
04:00 +11°C° 0.5 mm 1 mps 746 mmHg 93%
05:00 +11°C° 0.5 mm 1 mps 746 mmHg 94%
06:00 +10°C° 0.5 mm 1 mps 747 mmHg 96%
07:00 +11°C° 0.8 mm 1 mps 747 mmHg 94%
08:00 +11°C° 0.8 mm 1 mps 747 mmHg 92%
09:00 +11°C° 0.8 mm 1 mps 747 mmHg 91%
10:00 +11°C° 0 mm 1 mps 747 mmHg 84%
11:00 +10°C° 0 mm 2 mps 747 mmHg 78%
12:00 +10°C° 0 mm 2 mps 747 mmHg 72%
13:00 +10°C° 0 mm 2 mps 747 mmHg 68%
14:00 +12°C° 0 mm 2 mps 747 mmHg 65%
15:00 +12°C° 0 mm 2 mps 746 mmHg 61%
16:00 +10°C° 0 mm 1 mps 747 mmHg 63%
17:00 +9°C° 0 mm 1 mps 747 mmHg 65%
18:00 +7°C° 0 mm 1 mps 747 mmHg 67%
19:00 +6°C° 0 mm 0 mps 747 mmHg 66%
20:00 +6°C° 0 mm 0 mps 747 mmHg 64%
21:00 +5°C° 0 mm 0 mps 748 mmHg 63%
22:00 +6°C° 0 mm 1 mps 747 mmHg 67%
23:00 +6°C° 0 mm 1 mps 747 mmHg 70%

Day after tomorrow, 23 October, Friday

Time Temperature Precipitation Wind Pressure Humidity
00:00 +5°C° 0 mm 1 mps 747 mmHg 74%
01:00 +5°C° 0 mm 1 mps 747 mmHg 76%
02:00 +4°C° 0 mm 1 mps 746 mmHg 79%
03:00 +4°C° 0 mm 1 mps 746 mmHg 82%
04:00 +4°C° 0 mm 1 mps 746 mmHg 83%
05:00 +4°C° 0 mm 1 mps 745 mmHg 84%
06:00 +3°C° 0 mm 1 mps 745 mmHg 86%
07:00 +3°C° 0 mm 2 mps 745 mmHg 84%
08:00 +3°C° 0 mm 2 mps 744 mmHg 83%
09:00 +2°C° 0 mm 3 mps 744 mmHg 82%
10:00 +2°C° 0.3 mm 3 mps 744 mmHg 82%
11:00 +1°C° 0.3 mm 4 mps 743 mmHg 82%
12:00 +1°C° 0.3 mm 4 mps 742 mmHg 82%
13:00 +1°C° 0.3 mm 5 mps 742 mmHg 76%
14:00 +1°C° 0.3 mm 5 mps 741 mmHg 70%
15:00 +1°C° 0.3 mm 6 mps 740 mmHg 64%
16:00 0°C° 0 mm 5 mps 740 mmHg 65%
17:00 0°C° 0 mm 5 mps 740 mmHg 66%
18:00 -1°C° 0 mm 5 mps 740 mmHg 67%
19:00 -1°C° 0 mm 5 mps 740 mmHg 67%
20:00 -1°C° 0 mm 5 mps 740 mmHg 67%
21:00 -2°C° 0 mm 6 mps 739 mmHg 67%
22:00 -3°C° 0 mm 6 mps 739 mmHg 70%
23:00 -3°C° 0 mm 6 mps 738 mmHg 73%

24 October, Saturday

Time Temperature Precipitation Wind Pressure Humidity
00:00 -3°C° 0 mm 6 mps 738 mmHg 76%
01:00 -3°C° 0.6 mm 6 mps 737 mmHg 82%
02:00 -4°C° 0.6 mm 6 mps 737 mmHg 88%
03:00 -4°C° 0.6 mm 6 mps 737 mmHg 94%
04:00 -4°C° 1.3 mm 6 mps 736 mmHg 94%
05:00 -3°C° 1.3 mm 7 mps 736 mmHg 95%
06:00 -3°C° 1.3 mm 7 mps 736 mmHg 95%
07:00 -3°C° 1 mm 7 mps 736 mmHg 94%
08:00 -3°C° 1 mm 7 mps 736 mmHg 94%
09:00 -3°C° 1 mm 7 mps 735 mmHg 94%
10:00 -3°C° 0.8 mm 6 mps 735 mmHg 94%
11:00 -2°C° 0.8 mm 6 mps 735 mmHg 94%
12:00 -2°C° 0.8 mm 6 mps 735 mmHg 94%
13:00 -2°C° 0.7 mm 6 mps 735 mmHg 95%
14:00 -1°C° 0.7 mm 5 mps 736 mmHg 95%
15:00 -1°C° 0.7 mm 5 mps 736 mmHg 96%
16:00 -1°C° 0.5 mm 5 mps 736 mmHg 96%
17:00 -1°C° 0.5 mm 5 mps 736 mmHg 96%
18:00 -1°C° 0.5 mm 5 mps 737 mmHg 97%
19:00 -1°C° 0.2 mm 5 mps 737 mmHg 97%
20:00 -1°C° 0.2 mm 4 mps 737 mmHg 97%
21:00 -1°C° 0.2 mm 4 mps 737 mmHg 96%
22:00 0°C° 0.2 mm 4 mps 738 mmHg 97%
23:00 0°C° 0.2 mm 4 mps 738 mmHg 97%

25 October, Sunday

Time Temperature Precipitation Wind Pressure Humidity
00:00 0°C° 0.2 mm 4 mps 738 mmHg 98%
01:00 0°C° 0.4 mm 3 mps 739 mmHg 97%
02:00 0°C° 0.4 mm 3 mps 740 mmHg 97%
03:00 0°C° 0.4 mm 3 mps 740 mmHg 96%
04:00 +1°C° 0.2 mm 2 mps 741 mmHg 95%
05:00 +1°C° 0.2 mm 2 mps 741 mmHg 94%
06:00 -1°C° 0.2 mm 2 mps 742 mmHg 93%
07:00 +1°C° 0 mm 2 mps 743 mmHg 90%
08:00 +1°C° 0 mm 2 mps 744 mmHg 88%
09:00 +2°C° 0 mm 2 mps 744 mmHg 86%
10:00 +3°C° 0 mm 2 mps 745 mmHg 86%
11:00 +3°C° 0 mm 2 mps 745 mmHg 87%
12:00 +4°C° 0 mm 2 mps 745 mmHg 87%
13:00 +4°C° 0 mm 2 mps 746 mmHg 87%
14:00 +5°C° 0 mm 2 mps 746 mmHg 88%
15:00 +6°C° 0 mm 1 mps 747 mmHg 88%
16:00 +5°C° 0 mm 1 mps 747 mmHg 90%
17:00 +4°C° 0 mm 1 mps 748 mmHg 91%
18:00 +3°C° 0 mm 0 mps 749 mmHg 93%
19:00 +2°C° 0 mm 0 mps 749 mmHg 93%
20:00 +2°C° 0 mm 0 mps 750 mmHg 92%
21:00 +1°C° 0 mm 0 mps 750 mmHg 92%
22:00 +1°C° 0 mm 0 mps 750 mmHg 92%
23:00 +1°C° 0 mm 0 mps 750 mmHg 93%

26 October, Monday

Time Temperature Precipitation Wind Pressure Humidity
00:00 +1°C° 0 mm 0 mps 750 mmHg 93%
01:00 0°C° 0 mm 0 mps 751 mmHg 93%
02:00 0°C° 0 mm 0 mps 751 mmHg 93%
03:00 0°C° 0 mm 0 mps 751 mmHg 94%
04:00 0°C° 0 mm 0 mps 751 mmHg 94%
05:00 -1°C° 0 mm 0 mps 752 mmHg 94%
06:00 -1°C° 0 mm 0 mps 752 mmHg 94%
07:00 +1°C° 0 mm 0 mps 752 mmHg 93%
08:00 +2°C° 0 mm 0 mps 752 mmHg 92%
09:00 +3°C° 0 mm 0 mps 753 mmHg 90%
10:00 +5°C° 0 mm 0 mps 753 mmHg 88%
11:00 +6°C° 0 mm 0 mps 752 mmHg 86%
12:00 +7°C° 0 mm 0 mps 752 mmHg 84%
13:00 +8°C° 0 mm 0 mps 752 mmHg 84%
14:00 +8°C° 0 mm 0 mps 752 mmHg 83%
15:00 +8°C° 0 mm 0 mps 752 mmHg 83%
16:00 +6°C° 0 mm 0 mps 752 mmHg 86%
17:00 +5°C° 0 mm 0 mps 752 mmHg 90%
18:00 +5°C° 0 mm 1 mps 752 mmHg 93%
19:00 +4°C° 0 mm 1 mps 752 mmHg 94%
20:00 +4°C° 0 mm 1 mps 752 mmHg 95%
21:00 +4°C° 0 mm 1 mps 752 mmHg 95%
22:00 +3°C° 0 mm 1 mps 752 mmHg 96%
23:00 +3°C° 0 mm 1 mps 752 mmHg 96%

27 October, Tuesday

Time Temperature Precipitation Wind Pressure Humidity
00:00 +3°C° 0 mm 1 mps 751 mmHg 96%
01:00 +3°C° 0 mm 1 mps 751 mmHg 96%
02:00 +2°C° 0 mm 1 mps 751 mmHg 95%
03:00 +2°C° 0 mm 1 mps 751 mmHg 95%
04:00 +2°C° 0 mm 1 mps 751 mmHg 94%
05:00 +2°C° 0 mm 1 mps 751 mmHg 93%
06:00 +2°C° 0 mm 1 mps 751 mmHg 92%
07:00 +3°C° 0 mm 1 mps 751 mmHg 89%
08:00 +4°C° 0 mm 1 mps 751 mmHg 87%
09:00 +5°C° 0 mm 1 mps 751 mmHg 85%
10:00 +7°C° 0 mm 1 mps 751 mmHg 82%
11:00 +8°C° 0 mm 1 mps 751 mmHg 80%
12:00 +10°C° 0 mm 1 mps 750 mmHg 77%
13:00 +10°C° 0 mm 1 mps 750 mmHg 77%
14:00 +10°C° 0 mm 1 mps 750 mmHg 77%
15:00 +11°C° 0 mm 1 mps 751 mmHg 77%
16:00 +9°C° 0 mm 1 mps 751 mmHg 80%
17:00 +7°C° 0 mm 0 mps 751 mmHg 84%
18:00 +5°C° 0 mm 0 mps 752 mmHg 87%
19:00 +6°C° 0 mm 1 mps 752 mmHg 85%
20:00 +5°C° 0 mm 1 mps 753 mmHg 83%
21:00 +5°C° 0 mm 1 mps 753 mmHg 81%
22:00 +4°C° 0 mm 1 mps 753 mmHg 81%
23:00 +4°C° 0 mm 1 mps 754 mmHg 81%
Show more